Location: Unspecified
(0.0000°N, 0.0000°E)
Time: 20:23:51
(UTC+00:00)

ARIANE 2 DEB - Pass Details

Date: 09 March 2026
Orbit: 794 x 35760 km, 8.3° (Epoch: 17 April)

Event Time Altitude Azimuth Distance (km) Brightness Sun altitude
Rises 12:31:21 0° 260° (W) 9,455 ? 83.2°
Reaches altitude 10° 12:35:44 10° 259° (W) 9,657 ? 82.3°
Maximum altitude 14:26:54 68° 260° (W) 26,215 ? 55.7°
Enters shadow 22:24:13 63° 311° (NW) 4,984 ? -63.1°
